Time,TemperatureF,DewpointF,PressureIn,WindDirection,WindDirectionDegrees,WindSpeedMPH,WindSpeedGustMPH,Humidity,HourlyPrecipIn,Conditions,Clouds,dailyrainin,SoftwareType,DateUTC
2013-05-08 00:05:00,70.8,64.7,29.96,East,85,2.0,2.0,81,0.00,,,0.00,Wunderground v.1.15,2013-05-08 10:05:00,
2013-05-08 00:15:00,71.1,64.6,29.96,East,84,2.0,4.0,80,0.00,,,0.00,Wunderground v.1.15,2013-05-08 10:15:00,
2013-05-08 00:25:00,71.1,64.6,29.96,East,85,2.0,4.0,80,0.00,,,0.00,Wunderground v.1.15,2013-05-08 10:25:00,
2013-05-08 00:30:00,71.1,64.6,29.95,East,85,2.0,2.0,80,0.00,,,0.00,Wunderground v.1.15,2013-05-08 10:30:00,
2013-05-08 00:40:00,71.2,64.7,29.95,East,85,1.0,1.0,80,0.00,,,0.00,Wunderground v.1.15,2013-05-08 10:40:00,
2013-05-08 00:50:00,71.4,64.9,29.95,East,85,1.0,1.0,80,0.00,,,0.00,Wunderground v.1.15,2013-05-08 10:50:00,
2013-05-08 01:00:00,71.4,64.9,29.94,East,85,0.0,0.0,80,0.00,,,0.00,Wunderground v.1.15,2013-05-08 11:00:00,
2013-05-08 01:05:00,71.3,64.8,29.94,East,85,0.0,0.0,80,0.00,,,0.00,Wunderground v.1.15,2013-05-08 11:05:00,
2013-05-08 01:14:00,70.9,64.8,29.94,East,84,0.0,0.0,81,0.00,,,0.00,Wunderground v.1.15,2013-05-08 11:14:00,
2013-05-08 01:20:00,70.8,64.7,29.94,East,84,1.0,1.0,81,0.00,,,0.00,Wunderground v.1.15,2013-05-08 11:20:00,
2013-05-08 01:30:00,71.0,64.9,29.93,East,85,1.0,1.0,81,0.00,,,0.00,Wunderground v.1.15,2013-05-08 11:30:00,
2013-05-08 01:40:00,71.0,64.9,29.93,East,84,0.0,0.0,81,0.00,,,0.00,Wunderground v.1.15,2013-05-08 11:40:00,
2013-05-08 01:45:00,71.0,64.9,29.93,East,85,0.0,0.0,81,0.00,,,0.00,Wunderground v.1.15,2013-05-08 11:45:00,
2013-05-08 01:50:00,70.8,64.7,29.93,East,84,0.0,0.0,81,0.00,,,0.00,Wunderground v.1.15,2013-05-08 11:50:00,
2013-05-08 02:00:00,70.3,64.5,29.92,East,85,0.0,0.0,82,0.00,,,0.00,Wunderground v.1.15,2013-05-08 12:00:00,
2013-05-08 02:05:00,70.1,64.3,29.92,East,85,0.0,0.0,82,0.00,,,0.00,Wunderground v.1.15,2013-05-08 12:05:00,
2013-05-08 02:15:00,69.8,64.4,29.91,East,85,0.0,0.0,83,0.00,,,0.00,Wunderground v.1.15,2013-05-08 12:15:00,
2013-05-08 02:25:00,69.7,64.3,29.91,East,85,0.0,0.0,83,0.00,,,0.00,Wunderground v.1.15,2013-05-08 12:25:00,
2013-05-08 02:35:00,69.9,64.8,29.91,East,85,0.0,0.0,84,0.00,,,0.00,Wunderground v.1.15,2013-05-08 12:35:00,
2013-05-08 02:45:00,70.1,65.0,29.90,East,85,0.0,1.0,84,0.00,,,0.00,Wunderground v.1.15,2013-05-08 12:45:00,
2013-05-08 02:55:00,70.1,65.0,29.91,East,85,0.0,0.0,84,0.00,,,0.00,Wunderground v.1.15,2013-05-08 12:55:00,
2013-05-08 03:05:00,70.3,65.2,29.91,East,84,0.0,0.0,84,0.00,,,0.00,Wunderground v.1.15,2013-05-08 13:05:00,
2013-05-08 03:15:00,70.5,65.4,29.91,East,84,0.0,0.0,84,0.00,,,0.00,Wunderground v.1.15,2013-05-08 13:15:00,
2013-05-08 03:20:00,70.6,65.5,29.91,East,85,0.0,0.0,84,0.00,,,0.00,Wunderground v.1.15,2013-05-08 13:20:00,
2013-05-08 03:30:00,70.7,65.6,29.91,East,85,0.0,0.0,84,0.00,,,0.00,Wunderground v.1.15,2013-05-08 13:30:00,
2013-05-08 03:40:00,70.7,65.6,29.91,East,85,0.0,0.0,84,0.00,,,0.00,Wunderground v.1.15,2013-05-08 13:40:00,
2013-05-08 03:50:00,70.6,65.5,29.91,East,85,0.0,0.0,84,0.00,,,0.00,Wunderground v.1.15,2013-05-08 13:50:00,
2013-05-08 04:00:00,70.4,65.3,29.90,East,84,0.0,0.0,84,0.00,,,0.00,Wunderground v.1.15,2013-05-08 14:00:00,
2013-05-08 04:05:00,70.3,65.2,29.90,East,84,0.0,0.0,84,0.00,,,0.00,Wunderground v.1.15,2013-05-08 14:05:00,
2013-05-08 04:15:00,70.1,65.4,29.90,East,85,0.0,0.0,85,0.00,,,0.00,Wunderground v.1.15,2013-05-08 14:15:00,
2013-05-08 04:25:00,70.0,65.3,29.90,East,85,0.0,2.0,85,0.00,,,0.00,Wunderground v.1.15,2013-05-08 14:25:00,
2013-05-08 04:30:00,69.9,65.2,29.90,East,85,0.0,0.0,85,0.00,,,0.00,Wunderground v.1.15,2013-05-08 14:30:00,
2013-05-08 04:40:00,69.8,65.1,29.91,East,85,0.0,0.0,85,0.00,,,0.00,Wunderground v.1.15,2013-05-08 14:40:00,
2013-05-08 04:50:00,69.7,65.0,29.91,East,85,0.0,0.0,85,0.00,,,0.00,Wunderground v.1.15,2013-05-08 14:50:00,
2013-05-08 05:00:00,69.5,65.1,29.91,East,85,0.0,0.0,86,0.00,,,0.00,Wunderground v.1.15,2013-05-08 15:00:00,
2013-05-08 05:05:00,69.4,65.0,29.92,East,84,0.0,0.0,86,0.00,,,0.00,Wunderground v.1.15,2013-05-08 15:05:00,
2013-05-08 05:15:00,69.4,65.0,29.92,East,85,0.0,0.0,86,0.00,,,0.00,Wunderground v.1.15,2013-05-08 15:15:00,
2013-05-08 05:25:00,69.6,65.2,29.92,East,85,0.0,0.0,86,0.00,,,0.00,Wunderground v.1.15,2013-05-08 15:25:00,
2013-05-08 05:35:00,69.7,65.3,29.92,East,85,0.0,0.0,86,0.00,,,0.00,Wunderground v.1.15,2013-05-08 15:35:00,
2013-05-08 05:45:00,69.5,65.1,29.92,East,85,0.0,0.0,86,0.00,,,0.00,Wunderground v.1.15,2013-05-08 15:45:00,
2013-05-08 05:55:00,69.4,65.0,29.92,East,85,0.0,1.0,86,0.00,,,0.00,Wunderground v.1.15,2013-05-08 15:55:00,
2013-05-08 06:00:00,69.3,65.3,29.92,East,84,0.0,1.0,87,0.00,,,0.00,Wunderground v.1.15,2013-05-08 16:00:00,
2013-05-08 06:05:00,69.4,65.4,29.92,East,84,0.0,1.0,87,0.00,,,0.00,Wunderground v.1.15,2013-05-08 16:05:00,
2013-05-08 06:15:00,69.7,66.0,29.92,East,84,0.0,0.0,88,0.00,,,0.00,Wunderground v.1.15,2013-05-08 16:15:00,
2013-05-08 06:25:00,70.1,66.0,29.93,East,85,0.0,1.0,87,0.00,,,0.00,Wunderground v.1.15,2013-05-08 16:25:00,
2013-05-08 06:35:00,70.8,66.4,29.93,East,85,1.0,1.0,86,0.00,,,0.00,Wunderground v.1.15,2013-05-08 16:35:00,
2013-05-08 06:45:00,71.5,66.8,29.94,East,85,1.0,3.0,85,0.00,,,0.00,Wunderground v.1.15,2013-05-08 16:45:00,
2013-05-08 06:55:00,73.3,68.5,29.94,East,85,0.0,2.0,85,0.00,,,0.00,Wunderground v.1.15,2013-05-08 16:55:00,
2013-05-08 07:05:00,74.2,68.0,29.94,East,85,0.0,0.0,81,0.00,,,0.00,Wunderground v.1.15,2013-05-08 17:05:00,
2013-05-08 07:15:00,74.4,68.5,29.94,East,85,0.0,0.0,82,0.00,,,0.00,Wunderground v.1.15,2013-05-08 17:15:00,
2013-05-08 07:25:00,76.2,69.2,29.94,East,84,0.0,2.0,79,0.00,,,0.00,Wunderground v.1.15,2013-05-08 17:25:00,
2013-05-08 07:30:00,76.9,69.1,29.95,East,84,0.0,0.0,77,0.00,,,0.00,Wunderground v.1.15,2013-05-08 17:30:00,
2013-05-08 07:40:00,77.8,69.2,29.95,East,85,1.0,3.0,75,0.00,,,0.00,Wunderground v.1.15,2013-05-08 17:40:00,
2013-05-08 07:50:00,78.0,69.0,29.95,East,85,1.0,1.0,74,0.00,,,0.00,Wunderground v.1.15,2013-05-08 17:50:00,
2013-05-08 07:55:00,77.8,69.2,29.96,East,85,1.0,1.0,75,0.00,,,0.00,Wunderground v.1.15,2013-05-08 17:55:00,
2013-05-08 08:05:00,77.3,68.8,29.96,East,84,1.0,1.0,75,0.00,,,0.00,Wunderground v.1.15,2013-05-08 18:05:00,
2013-05-08 08:15:00,76.7,68.6,29.96,East,84,2.0,3.0,76,0.00,,,0.00,Wunderground v.1.15,2013-05-08 18:15:00,
2013-05-08 08:25:00,76.5,68.7,29.96,East,84,1.0,2.0,77,0.00,,,0.00,Wunderground v.1.15,2013-05-08 18:25:00,
2013-05-08 08:35:00,77.0,68.9,29.97,East,85,1.0,1.0,76,0.00,,,0.00,Wunderground v.1.15,2013-05-08 18:35:00,
2013-05-08 08:45:00,78.3,69.3,29.97,East,85,1.0,2.0,74,0.00,,,0.00,Wunderground v.1.15,2013-05-08 18:45:00,
2013-05-08 08:55:00,78.5,69.5,29.98,East,85,1.0,2.0,74,0.00,,,0.00,Wunderground v.1.15,2013-05-08 18:55:00,
2013-05-08 09:05:00,78.6,68.8,29.98,East,85,2.0,2.0,72,0.00,,,0.00,Wunderground v.1.15,2013-05-08 19:05:00,
2013-05-08 09:15:00,78.2,69.2,29.98,East,85,2.0,2.0,74,0.00,,,0.00,Wunderground v.1.15,2013-05-08 19:15:00,
2013-05-08 09:25:00,79.0,69.6,29.98,East,85,2.0,2.0,73,0.00,,,0.00,Wunderground v.1.15,2013-05-08 19:25:00,
2013-05-08 09:35:00,78.5,69.1,29.98,East,82,3.0,3.0,73,0.00,,,0.00,Wunderground v.1.15,2013-05-08 19:35:00,
2013-05-08 09:45:00,78.7,69.7,29.98,East,80,3.0,3.0,74,0.00,,,0.00,Wunderground v.1.15,2013-05-08 19:45:00,
2013-05-08 09:55:00,78.6,69.2,29.98,ENE,64,3.0,4.0,73,0.00,,,0.00,Wunderground v.1.15,2013-05-08 19:55:00,
2013-05-08 10:00:00,78.7,69.3,29.98,ENE,59,3.0,3.0,73,0.00,,,0.00,Wunderground v.1.15,2013-05-08 20:00:00,
2013-05-08 10:05:00,79.0,69.2,29.98,NE,56,3.0,3.0,72,0.00,,,0.00,Wunderground v.1.15,2013-05-08 20:05:00,
2013-05-08 10:15:00,79.3,69.9,29.98,ENE,57,2.0,2.0,73,0.00,,,0.00,Wunderground v.1.15,2013-05-08 20:15:00,
2013-05-08 10:25:00,79.6,70.2,29.98,NE,56,3.0,4.0,73,0.00,,,0.00,Wunderground v.1.15,2013-05-08 20:25:00,
2013-05-08 10:35:00,80.3,70.0,29.98,NE,56,2.0,4.0,71,0.00,,,0.00,Wunderground v.1.15,2013-05-08 20:35:00,
2013-05-08 10:45:00,79.6,69.4,29.98,NE,51,4.0,4.0,71,0.00,,,0.00,Wunderground v.1.15,2013-05-08 20:45:00,
2013-05-08 10:55:00,79.6,69.4,29.98,NE,50,3.0,4.0,71,0.00,,,0.00,Wunderground v.1.15,2013-05-08 20:55:00,
2013-05-08 11:05:00,79.3,69.5,29.98,NE,49,3.0,6.0,72,0.00,,,0.00,Wunderground v.1.15,2013-05-08 21:05:00,
2013-05-08 11:15:00,80.5,69.8,29.98,NE,49,2.0,3.0,70,0.00,,,0.00,Wunderground v.1.15,2013-05-08 21:15:00,
2013-05-08 11:20:00,80.9,70.6,29.97,NE,48,2.0,3.0,71,0.00,,,0.00,Wunderground v.1.15,2013-05-08 21:20:00,
2013-05-08 11:30:00,80.7,70.4,29.98,NE,49,3.0,4.0,71,0.00,,,0.00,Wunderground v.1.15,2013-05-08 21:30:00,
2013-05-08 11:40:00,80.7,70.0,29.97,NE,48,3.0,4.0,70,0.00,,,0.00,Wunderground v.1.15,2013-05-08 21:40:00,
2013-05-08 11:50:00,80.3,69.6,29.97,NE,46,3.0,3.0,70,0.00,,,0.00,Wunderground v.1.15,2013-05-08 21:50:00,
2013-05-08 12:00:00,80.7,70.4,29.97,NE,46,2.0,4.0,71,0.00,,,0.00,Wunderground v.1.15,2013-05-08 22:00:00,
2013-05-08 12:05:00,80.4,69.7,29.97,NE,45,3.0,4.0,70,0.00,,,0.00,Wunderground v.1.15,2013-05-08 22:05:00,
2013-05-08 12:15:00,80.8,70.1,29.96,NE,45,2.0,3.0,70,0.00,,,0.00,Wunderground v.1.15,2013-05-08 22:15:00,
2013-05-08 12:25:00,80.5,70.2,29.97,NE,45,2.0,2.0,71,0.00,,,0.00,Wunderground v.1.15,2013-05-08 22:25:00,
2013-05-08 12:35:00,80.7,70.0,29.96,NE,43,2.0,6.0,70,0.00,,,0.00,Wunderground v.1.15,2013-05-08 22:35:00,
2013-05-08 12:40:00,80.5,69.8,29.96,NE,43,2.0,2.0,70,0.00,,,0.00,Wunderground v.1.15,2013-05-08 22:40:00,
2013-05-08 12:50:00,80.6,69.9,29.95,NE,42,2.0,3.0,70,0.00,,,0.00,Wunderground v.1.15,2013-05-08 22:50:00,
2013-05-08 13:00:00,80.3,70.0,29.95,NE,40,2.0,3.0,71,0.00,,,0.00,Wunderground v.1.15,2013-05-08 23:00:00,
2013-05-08 13:05:00,80.8,70.1,29.95,NE,40,2.0,3.0,70,0.00,,,0.00,Wunderground v.1.15,2013-05-08 23:05:00,
2013-05-08 13:15:00,81.5,69.9,29.95,NE,40,2.0,2.0,68,0.00,,,0.00,Wunderground v.1.15,2013-05-08 23:15:00,
2013-05-08 13:20:00,80.9,70.2,29.95,NE,40,2.0,3.0,70,0.00,,,0.00,Wunderground v.1.15,2013-05-08 23:20:00,
2013-05-08 13:30:00,81.1,70.4,29.94,NE,40,2.0,5.0,70,0.00,,,0.00,Wunderground v.1.15,2013-05-08 23:30:00,
2013-05-08 13:40:00,81.0,69.4,29.94,NE,40,2.0,4.0,68,0.00,,,0.00,Wunderground v.1.15,2013-05-08 23:40:00,
2013-05-08 13:45:00,81.1,70.4,29.94,NE,40,2.0,4.0,70,0.00,,,0.00,Wunderground v.1.15,2013-05-08 23:45:00,
2013-05-08 13:55:00,80.5,70.6,29.93,NE,40,3.0,4.0,72,0.00,,,0.00,Wunderground v.1.15,2013-05-08 23:55:00,
2013-05-08 14:05:00,80.7,70.8,29.94,NE,40,3.0,3.0,72,0.00,,,0.00,Wunderground v.1.15,2013-05-09 00:05:00,
2013-05-08 14:15:00,81.3,70.6,29.94,NE,40,3.0,3.0,70,0.00,,,0.00,Wunderground v.1.15,2013-05-09 00:15:00,
2013-05-08 14:25:00,80.3,70.0,29.93,NE,37,4.0,4.0,71,0.00,,,0.00,Wunderground v.1.15,2013-05-09 00:25:00,
2013-05-08 14:35:00,79.7,69.5,29.93,NE,36,4.0,4.0,71,0.00,,,0.00,Wunderground v.1.15,2013-05-09 00:35:00,
2013-05-08 14:45:00,80.3,70.4,29.93,NE,34,3.0,4.0,72,0.00,,,0.00,Wunderground v.1.15,2013-05-09 00:45:00,
2013-05-08 14:55:00,79.5,69.3,29.93,NE,34,4.0,4.0,71,0.00,,,0.00,Wunderground v.1.15,2013-05-09 00:55:00,
2013-05-08 15:05:00,80.0,70.6,29.93,NNE,32,4.0,4.0,73,0.00,,,0.00,Wunderground v.1.15,2013-05-09 01:05:00,
2013-05-08 15:15:00,80.0,69.7,29.93,NNE,31,4.0,4.0,71,0.00,,,0.00,Wunderground v.1.15,2013-05-09 01:15:00,
2013-05-08 15:25:00,79.1,69.7,29.93,NE,34,5.0,7.0,73,0.00,,,0.00,Wunderground v.1.15,2013-05-09 01:25:00,
2013-05-08 15:35:00,78.7,69.3,29.93,NNE,30,4.0,6.0,73,0.00,,,0.00,Wunderground v.1.15,2013-05-09 01:35:00,
2013-05-08 15:45:00,78.9,69.1,29.93,NNE,30,4.0,7.0,72,0.00,,,0.00,Wunderground v.1.15,2013-05-09 01:45:00,
2013-05-08 15:50:00,78.6,69.6,29.93,NNE,32,4.0,4.0,74,0.00,,,0.00,Wunderground v.1.15,2013-05-09 01:50:00,
2013-05-08 16:00:00,78.4,69.0,29.92,NE,44,4.0,4.0,73,0.00,,,0.00,Wunderground v.1.15,2013-05-09 02:00:00,
2013-05-08 16:05:00,77.9,68.5,29.93,NE,42,4.0,4.0,73,0.00,,,0.00,Wunderground v.1.15,2013-05-09 02:05:00,
2013-05-08 16:15:00,77.4,68.9,29.93,NE,41,4.0,5.0,75,0.00,,,0.00,Wunderground v.1.15,2013-05-09 02:15:00,
2013-05-08 16:25:00,77.6,69.0,29.93,NE,40,3.0,5.0,75,0.00,,,0.00,Wunderground v.1.15,2013-05-09 02:25:00,
2013-05-08 16:35:00,77.9,69.3,29.92,NE,38,4.0,6.0,75,0.00,,,0.00,Wunderground v.1.15,2013-05-09 02:35:00,
2013-05-08 16:45:00,78.4,69.4,29.92,NE,38,4.0,4.0,74,0.00,,,0.00,Wunderground v.1.15,2013-05-09 02:45:00,
2013-05-08 16:55:00,78.5,69.1,29.92,NE,39,4.0,6.0,73,0.00,,,0.00,Wunderground v.1.15,2013-05-09 02:55:00,
2013-05-08 17:05:00,78.2,68.8,29.92,NE,38,4.0,4.0,73,0.00,,,0.00,Wunderground v.1.15,2013-05-09 03:05:00,
2013-05-08 17:15:00,77.5,68.6,29.92,NE,37,5.0,5.0,74,0.00,,,0.00,Wunderground v.1.15,2013-05-09 03:15:00,
2013-05-08 17:25:00,77.3,68.8,29.92,NNE,30,4.0,6.0,75,0.00,,,0.00,Wunderground v.1.15,2013-05-09 03:25:00,
2013-05-08 17:35:00,76.4,68.3,29.93,NNE,33,5.0,7.0,76,0.00,,,0.00,Wunderground v.1.15,2013-05-09 03:35:00,
2013-05-08 17:45:00,76.3,68.2,29.93,NE,36,4.0,5.0,76,0.00,,,0.00,Wunderground v.1.15,2013-05-09 03:45:00,
2013-05-08 17:55:00,76.1,68.4,29.94,NE,36,5.0,5.0,77,0.00,,,0.00,Wunderground v.1.15,2013-05-09 03:55:00,
2013-05-08 18:05:00,75.7,68.0,29.94,NE,36,5.0,7.0,77,0.00,,,0.00,Wunderground v.1.15,2013-05-09 04:05:00,
2013-05-08 18:10:00,75.7,68.4,29.94,NE,36,5.0,7.0,78,0.00,,,0.00,Wunderground v.1.15,2013-05-09 04:10:00,
2013-05-08 18:20:00,75.7,68.4,29.94,NE,36,3.0,5.0,78,0.00,,,0.00,Wunderground v.1.15,2013-05-09 04:20:00,
2013-05-08 18:25:00,75.7,68.4,29.95,NE,36,3.0,5.0,78,0.00,,,0.00,Wunderground v.1.15,2013-05-09 04:25:00,
2013-05-08 18:35:00,75.7,68.4,29.95,NE,36,3.0,3.0,78,0.00,,,0.00,Wunderground v.1.15,2013-05-09 04:35:00,
2013-05-08 18:45:00,75.6,68.3,29.95,NE,36,2.0,4.0,78,0.00,,,0.00,Wunderground v.1.15,2013-05-09 04:45:00,
2013-05-08 18:55:00,75.3,68.3,29.95,NE,36,3.0,4.0,79,0.00,,,0.00,Wunderground v.1.15,2013-05-09 04:55:00,
2013-05-08 19:00:00,75.3,68.3,29.95,NE,36,3.0,3.0,79,0.00,,,0.00,Wunderground v.1.15,2013-05-09 05:00:00,
2013-05-08 19:05:00,75.3,68.3,29.95,NE,36,2.0,3.0,79,0.00,,,0.00,Wunderground v.1.15,2013-05-09 05:05:00,
2013-05-08 19:15:00,75.1,68.5,29.96,NE,36,3.0,5.0,80,0.00,,,0.00,Wunderground v.1.15,2013-05-09 05:15:00,
2013-05-08 19:25:00,74.9,67.9,29.96,NE,36,3.0,3.0,79,0.00,,,0.00,Wunderground v.1.15,2013-05-09 05:25:00,
2013-05-08 19:35:00,74.8,68.2,29.96,NE,36,1.0,2.0,80,0.00,,,0.00,Wunderground v.1.15,2013-05-09 05:35:00,
2013-05-08 19:45:00,74.4,67.8,29.96,NE,36,0.0,1.0,80,0.00,,,0.00,Wunderground v.1.15,2013-05-09 05:45:00,
2013-05-08 19:55:00,74.1,67.9,29.96,NE,36,0.0,2.0,81,0.00,,,0.00,Wunderground v.1.15,2013-05-09 05:55:00,
2013-05-08 20:05:00,73.9,67.7,29.97,NE,36,0.0,0.0,81,0.00,,,0.00,Wunderground v.1.15,2013-05-09 06:05:00,
2013-05-08 20:15:00,73.7,67.5,29.97,NE,36,0.0,0.0,81,0.00,,,0.00,Wunderground v.1.15,2013-05-09 06:15:00,
2013-05-08 20:25:00,73.6,67.4,29.97,NE,36,0.0,0.0,81,0.00,,,0.00,Wunderground v.1.15,2013-05-09 06:25:00,
2013-05-08 20:30:00,73.5,67.7,29.97,NE,36,0.0,0.0,82,0.00,,,0.00,Wunderground v.1.15,2013-05-09 06:30:00,
2013-05-08 20:40:00,73.3,67.5,29.98,NE,36,1.0,1.0,82,0.00,,,0.00,Wunderground v.1.15,2013-05-09 06:40:00,
2013-05-08 20:50:00,73.3,67.5,29.98,NE,36,0.0,0.0,82,0.00,,,0.00,Wunderground v.1.15,2013-05-09 06:50:00,
2013-05-08 21:00:00,73.2,67.7,29.98,NE,36,0.0,0.0,83,0.00,,,0.00,Wunderground v.1.15,2013-05-09 07:00:00,
2013-05-08 21:05:00,73.1,67.6,29.99,NE,36,0.0,0.0,83,0.00,,,0.00,Wunderground v.1.15,2013-05-09 07:05:00,
2013-05-08 21:15:00,73.1,67.6,29.99,NE,36,0.0,0.0,83,0.00,,,0.00,Wunderground v.1.15,2013-05-09 07:15:00,
2013-05-08 21:20:00,73.1,67.6,29.99,NE,36,0.0,1.0,83,0.00,,,0.00,Wunderground v.1.15,2013-05-09 07:20:00,
2013-05-08 21:30:00,73.0,67.5,29.99,NE,36,1.0,1.0,83,0.00,,,0.00,Wunderground v.1.15,2013-05-09 07:30:00,
2013-05-08 21:40:00,72.9,67.4,30.00,NE,36,0.0,0.0,83,0.00,,,0.00,Wunderground v.1.15,2013-05-09 07:40:00,
2013-05-08 21:50:00,72.7,67.2,29.99,NE,36,1.0,1.0,83,0.00,,,0.00,Wunderground v.1.15,2013-05-09 07:50:00,
2013-05-08 22:00:00,72.4,66.6,29.99,NE,36,0.0,0.0,82,0.00,,,0.00,Wunderground v.1.15,2013-05-09 08:00:00,
2013-05-08 22:05:00,72.2,66.4,29.99,NE,36,0.0,0.0,82,0.00,,,0.00,Wunderground v.1.15,2013-05-09 08:05:00,
2013-05-08 22:15:00,72.0,66.6,29.99,NE,36,0.0,0.0,83,0.00,,,0.00,Wunderground v.1.15,2013-05-09 08:15:00,
2013-05-08 22:25:00,71.7,66.3,29.99,NE,36,0.0,0.0,83,0.00,,,0.00,Wunderground v.1.15,2013-05-09 08:25:00,
2013-05-08 22:30:00,71.6,66.2,29.99,NE,36,0.0,0.0,83,0.00,,,0.00,Wunderground v.1.15,2013-05-09 08:30:00,
2013-05-08 22:40:00,71.3,65.9,30.00,NE,36,0.0,0.0,83,0.00,,,0.00,Wunderground v.1.15,2013-05-09 08:40:00,
2013-05-08 22:50:00,71.2,65.8,30.00,NE,36,0.0,0.0,83,0.00,,,0.00,Wunderground v.1.15,2013-05-09 08:50:00,
2013-05-08 23:00:00,71.3,66.2,30.00,NE,36,0.0,0.0,84,0.00,,,0.00,Wunderground v.1.15,2013-05-09 09:00:00,
2013-05-08 23:05:00,71.3,66.2,30.00,NE,36,0.0,0.0,84,0.00,,,0.00,Wunderground v.1.15,2013-05-09 09:05:00,
2013-05-08 23:15:00,71.2,66.1,30.00,NE,36,0.0,0.0,84,0.00,,,0.00,Wunderground v.1.15,2013-05-09 09:15:00,
2013-05-08 23:25:00,71.2,66.1,30.00,NE,36,0.0,0.0,84,0.00,,,0.00,Wunderground v.1.15,2013-05-09 09:25:00,
2013-05-08 23:35:00,71.1,66.0,29.99,NE,36,0.0,0.0,84,0.00,,,0.00,Wunderground v.1.15,2013-05-09 09:35:00,
2013-05-08 23:45:00,71.1,66.4,29.99,NE,36,0.0,0.0,85,0.00,,,0.00,Wunderground v.1.15,2013-05-09 09:45:00,
2013-05-08 23:50:00,71.1,66.0,29.99,NE,36,0.0,0.0,84,0.00,,,0.00,Wunderground v.1.15,2013-05-09 09:50:00,